Weather 🌤️

Recent data

Temperatures

Wind

Pressure

Humidity & Precipitation

Last data
obsTime qcStatus tempAvg heatindexAvg windspeedAvg windgustAvg winddirAvg pressureAvg humidityAvg precipRate precipTotal
2026-09-06 19:59:56 1 31.4 31.7 0 4 222 998.14 41 0 0
2026-09-06 19:54:56 1 31.6 31.8 0.2 6 206 998.14 40.9 0 0
2026-09-06 19:49:56 1 31.6 31.7 0 6.1 212 998.14 40 0 0
2026-09-06 19:44:56 1 31.7 31.9 0.8 6.1 213 997.97 40 0 0
2026-09-06 19:39:56 1 31.8 32 0 6.1 199 998.14 40 0 0
2026-09-06 19:34:56 1 31.8 31.9 0.2 6.9 203 997.97 39.6 0 0
2026-09-06 19:29:56 1 31.9 31.9 1 6.9 216 997.97 39 0 0
2026-09-06 19:24:56 1 31.9 32 1.4 6.9 222 997.97 39 0 0
2026-09-06 19:19:51 1 32 32 0.8 6.9 232 997.97 38.8 0 0
2026-09-06 19:14:56 1 32.1 32 2.3 6.9 226 997.8 38.1 0 0
2026-09-06 19:09:56 1 32.1 32.1 0.7 6.9 201 997.8 38 0 0
2026-09-06 19:04:56 1 32.2 32.1 2.6 6.9 222 997.8 38 0 0

Hourly data

Temperatures

Wind

Pressure

Humidity & Precipitation

Last data
obsTime qcStatus tempAvg heatindexAvg windspeedAvg windgustAvg winddirAvg pressureAvg humidityAvg precipRate precipTotal
2026-09-06 19:59:56 1 31.8 31.9 0.8 6.4 219 997.97 39.4 0 0
2026-09-06 18:59:56 1 32.6 32.7 2.6 7.2 237 997.63 37.6 0 0
2026-09-06 17:59:56 1 32.4 32.5 2 7.3 220 997.63 37.9 0 0
2026-09-06 16:59:56 1 31.7 31.7 1.7 6.3 186 998.48 38.4 0 0
2026-09-06 15:59:56 1 31 31.2 2.2 8.6 187 998.82 41.3 0 0
2026-09-06 14:59:56 0 30.1 30.4 2.6 8.1 171 999.32 44.9 0 0
2026-09-06 13:59:56 1 28.7 29.5 3.2 7.6 192 1000 52 0 0
2026-09-06 12:59:47 1 26.7 27.4 2.1 6.1 199 1000.85 57.1 0 0
2026-09-06 11:59:56 1 24.7 24.8 2.1 6 180 1001.53 60.1 0 0
2026-09-06 10:59:56 1 22.8 22.8 1.5 4 196 1002.03 62.8 0 0
2026-09-06 09:59:56 1 21.1 21 1 5.2 206 1002.37 64.6 0 0
2026-09-06 08:59:48 0 20.5 20.5 2.5 5.5 209 1002.54 64.6 0 0
2026-09-06 07:59:56 0 20.6 20.6 0.7 2.6 202 1002.37 63.7 0 0
2026-09-06 06:59:56 0 21.3 21.1 0 0.7 196 1002.2 62.4 0 0
2026-09-06 05:59:56 0 21.9 21.7 0 1.7 195 1002.2 60.6 0 0
2026-09-06 04:59:56 0 22.4 22.3 0.3 2.2 206 1002.2 59.1 0 0
2026-09-06 03:59:56 0 23.1 22.9 0.3 3.9 214 1002.37 57.5 0 0
2026-09-06 02:59:56 0 23.6 23.5 1.6 6.6 220 1002.54 56.1 0 0
2026-09-06 01:59:56 0 24.2 24.1 2.4 6.7 223 1002.54 55.1 0 0
2026-09-06 00:59:56 0 24.6 24.5 2.8 7.8 225 1002.71 54.9 0 0
2026-09-05 23:59:51 0 25.3 25.3 2.9 6.1 227 1002.71 53.4 0 0
2026-09-05 22:59:56 0 26 26 1.7 6 215 1003.05 52.1 0 0
2026-09-05 21:59:49 0 26.6 26.8 1.5 7.2 221 1002.54 50.6 0 0
2026-09-05 20:59:53 0 27.5 27.8 3.7 14 280 1002.03 48.8 0 0